Monument Pass, CO

5:13 PM MDT on June 27, 2017 (GMT -0600)
Monument Pass

Weather History for KMNH - November, 2012

Change the Weather History Date:

Thursday, November 29, 2012

  Actual Average Record
Temperature  
Mean Temperature 46 °F -  
Max Temperature 59 °F - 60 °F (2003)
Min Temperature 32 °F - 0 °F (2004)
Degree Days  
Heating Degree Days 20    
Month to date heating degree days  
Cooling Degree Days 0    
Month to date cooling degree days  
Moisture  
Dew Point 12 °F    
Average Humidity 31    
Maximum Humidity 52    
Minimum Humidity 19    
Precipitation  
Precipitation 0.00 in - 0.00 in (2017)
Sea Level Pressure  
Sea Level Pressure 30.08 in    
Wind  
Wind Speed 9 mph (SW)    
Max Wind Speed 13 mph    
Max Gust Speed -    
Visibility 10 miles    
Events      
T = Trace of Precipitation, MM = Missing Value Source: NWS Daily Summary

Daily Weather History Graph

Daily Weather History Graph

Search for Another Location

Airport or City:

Trip Planner

Search our weather history database for the weather conditions in past years. The results will help you decide how hot, cold, wet, or windy it might be!

Date:

Astronomy

Nov. 29, 2012 Rise Set
Actual Time 6:57 AM MST 4:36 PM MST
Civil Twilight 6:28 AM MST 5:05 PM MST
Nautical Twilight 5:54 AM MST 5:39 PM MST
Astronomical Twilight 5:22 AM MST 6:11 PM MST
Moon 5:41 PM MST (11/29) 7:46 AM MST (11/29)
Length of Visible Light 10h 37m
Length of Day
9h 38m
Full, 99% of the Moon is Illuminated
Nov 29
Full
Dec 6
Last Quarter
Dec 13
New
Dec 19
First Quarter
Dec 28
Full

Hourly Weather History & Observations

Time (MST) Temp. Windchill Dew Point Humidity Pressure Visibility Wind Dir Wind Speed Gust Speed Precip Events Conditions
12:11 AM 33.8 °F 26.4 °F 1.4 °F 25% 30.10 in 10.0 mi SW 9.2 mph - N/A   Clear
12:31 AM 33.8 °F 27.0 °F 1.4 °F 25% 30.10 in 10.0 mi SW 8.1 mph - N/A   Clear
12:51 AM 37.4 °F 30.8 °F 1.4 °F 22% 30.09 in 10.0 mi SW 9.2 mph - N/A   Clear
1:11 AM 37.4 °F 30.3 °F 1.4 °F 22% 30.08 in 10.0 mi SW 10.4 mph - N/A   Clear
1:31 AM 35.6 °F 28.6 °F 1.4 °F 24% 30.07 in 10.0 mi SW 9.2 mph - N/A   Clear
1:51 AM 35.6 °F 28.0 °F 1.4 °F 24% 30.07 in 10.0 mi SW 10.4 mph - N/A   Clear
2:11 AM 35.6 °F 27.1 °F 1.4 °F 24% 30.07 in 10.0 mi SW 12.7 mph - N/A   Clear
2:30 AM 35.6 °F 27.5 °F 3.2 °F 26% 30.07 in 10.0 mi SW 11.5 mph - N/A   Clear
2:51 AM 35.6 °F 27.1 °F 3.2 °F 26% 30.07 in 10.0 mi SW 12.7 mph - N/A   Clear
3:11 AM 37.4 °F 29.8 °F 3.2 °F 24% 30.07 in 10.0 mi WSW 11.5 mph - N/A   Clear
3:31 AM 37.4 °F 29.3 °F 3.2 °F 24% 30.06 in 10.0 mi SW 12.7 mph - N/A   Clear
3:51 AM 35.6 °F 28.0 °F 3.2 °F 26% 30.06 in 10.0 mi SW 10.4 mph - N/A   Clear
4:11 AM 37.4 °F 30.8 °F 3.2 °F 24% 30.05 in 10.0 mi SW 9.2 mph - N/A   Clear
4:31 AM 35.6 °F 28.6 °F 3.2 °F 26% 30.05 in 10.0 mi SW 9.2 mph - N/A   Clear
4:51 AM 35.6 °F 27.1 °F 5.0 °F 28% 30.05 in 10.0 mi SW 12.7 mph - N/A   Clear
5:11 AM 35.6 °F 28.0 °F 5.0 °F 28% 30.05 in 10.0 mi SW 10.4 mph - N/A   Clear
5:31 AM 35.6 °F 28.6 °F 5.0 °F 28% 30.06 in 10.0 mi WSW 9.2 mph - N/A   Clear
5:50 AM 33.8 °F 25.8 °F 6.8 °F 32% 30.06 in 10.0 mi WSW 10.4 mph - N/A   Clear
6:11 AM 32.0 °F 24.8 °F 8.6 °F 38% 30.07 in 10.0 mi SW 8.1 mph - N/A   Clear
6:31 AM 33.8 °F 26.4 °F 8.6 °F 35% 30.08 in 10.0 mi WSW 9.2 mph - N/A   Clear
6:50 AM 33.8 °F 25.3 °F 8.6 °F 35% 30.09 in 10.0 mi WSW 11.5 mph - N/A   Clear
7:11 AM 35.6 °F 28.6 °F 10.4 °F 35% 30.09 in 10.0 mi SW 9.2 mph - N/A   Clear
7:31 AM 41.0 °F 36.4 °F 10.4 °F 29% 30.08 in 10.0 mi SW 6.9 mph - N/A   Clear
7:51 AM 42.8 °F 38.0 °F 12.2 °F 29% 30.09 in 10.0 mi SW 8.1 mph - N/A   Clear
8:11 AM 44.6 °F 41.4 °F 14.0 °F 29% 30.09 in 10.0 mi SW 5.8 mph - N/A   Clear
8:30 AM 44.6 °F 41.4 °F 15.8 °F 31% 30.09 in 10.0 mi SW 5.8 mph - N/A   Clear
9:10 AM 50.0 °F - 17.6 °F 28% 30.10 in 10.0 mi West 3.5 mph - N/A   Clear
9:31 AM 51.8 °F - 19.4 °F 28% 30.10 in 10.0 mi West 9.2 mph - N/A   Clear
9:51 AM 53.6 °F - 19.4 °F 26% 30.10 in 10.0 mi WNW 9.2 mph - N/A   Clear
10:11 AM 55.4 °F - 19.4 °F 25% 30.10 in 10.0 mi WNW 11.5 mph - N/A   Clear
10:51 AM 55.4 °F - 17.6 °F 23% 30.10 in 10.0 mi West 11.5 mph - N/A   Clear
11:11 AM 53.6 °F - 17.6 °F 24% 30.10 in 10.0 mi West 9.2 mph - N/A   Clear
11:31 AM 55.4 °F - 17.6 °F 23% 30.08 in 10.0 mi WNW 10.4 mph - N/A   Clear
11:51 AM 55.4 °F - 17.6 °F 23% 30.08 in 10.0 mi NW 10.4 mph - N/A   Clear
12:11 PM 55.4 °F - 17.6 °F 23% 30.07 in 10.0 mi WNW 4.6 mph - N/A   Clear
12:31 PM 57.2 °F - 17.6 °F 21% 30.07 in 10.0 mi NW 5.8 mph - N/A   Clear
12:51 PM 57.2 °F - 17.6 °F 21% 30.05 in 10.0 mi WSW 4.6 mph - N/A   Clear
1:10 PM 57.2 °F - 17.6 °F 21% 30.05 in 10.0 mi West 3.5 mph - N/A   Clear
1:31 PM 57.2 °F - 17.6 °F 21% 30.05 in 10.0 mi Calm Calm - N/A   Clear
1:51 PM 59.0 °F - 15.8 °F 19% 30.04 in 10.0 mi WNW 3.5 mph - N/A   Clear
2:11 PM 57.2 °F - 17.6 °F 21% 30.05 in 10.0 mi WSW 6.9 mph - N/A   Clear
2:31 PM 57.2 °F - 15.8 °F 20% 30.04 in 10.0 mi SE 3.5 mph - N/A   Clear
2:51 PM 57.2 °F - 15.8 °F 20% 30.04 in 10.0 mi Calm Calm - N/A   Clear
3:11 PM 55.4 °F - 15.8 °F 21% 30.05 in 10.0 mi SSE 6.9 mph - N/A   Clear
3:30 PM 55.4 °F - 15.8 °F 21% 30.05 in 10.0 mi South 5.8 mph - N/A   Clear
3:50 PM 53.6 °F - 15.8 °F 22% 30.05 in 10.0 mi South 5.8 mph - N/A   Clear
4:11 PM 50.0 °F - 15.8 °F 26% 30.06 in 10.0 mi SSE 6.9 mph - N/A   Clear
4:31 PM 44.6 °F 39.7 °F 15.8 °F 31% 30.07 in 7.0 mi South 9.2 mph - N/A   Clear
4:51 PM 42.8 °F 37.5 °F 14.0 °F 31% 30.07 in 10.0 mi South 9.2 mph - N/A   Clear
5:11 PM 42.8 °F 38.0 °F 14.0 °F 31% 30.08 in 10.0 mi South 8.1 mph - N/A   Clear
5:31 PM 41.0 °F 35.2 °F 14.0 °F 33% 30.08 in 10.0 mi SSE 9.2 mph - N/A   Clear
5:51 PM 41.0 °F 34.7 °F 14.0 °F 33% 30.09 in 10.0 mi South 10.4 mph - N/A   Clear
6:11 PM 41.0 °F 35.8 °F 14.0 °F 33% 30.10 in 10.0 mi SSW 8.1 mph - N/A   Clear
6:31 PM 39.2 °F 32.0 °F 14.0 °F 36% 30.09 in 10.0 mi SW 11.5 mph - N/A   Clear
6:51 PM 41.0 °F 34.7 °F 14.0 °F 33% 30.10 in 10.0 mi SW 10.4 mph - N/A   Clear
7:11 PM 35.6 °F 28.0 °F 15.8 °F 44% 30.10 in 10.0 mi West 10.4 mph - N/A   Clear
7:31 PM 37.4 °F 32.1 °F 15.8 °F 41% 30.11 in 10.0 mi West 6.9 mph - N/A   Clear
7:51 PM 33.8 °F 28.6 °F 17.6 °F 52% 30.11 in 10.0 mi SW 5.8 mph - N/A   Clear
8:11 PM 37.4 °F 33.8 °F 17.6 °F 45% 30.11 in 10.0 mi WSW 4.6 mph - N/A   Clear
8:31 PM 33.8 °F 27.0 °F 17.6 °F 52% 30.11 in 7.0 mi SW 8.1 mph - N/A   Clear
8:51 PM 32.0 °F 24.8 °F 15.8 °F 51% 30.11 in 10.0 mi SSW 8.1 mph - N/A   Clear
9:11 PM 33.8 °F 26.4 °F 17.6 °F 52% 30.11 in 10.0 mi SW 9.2 mph - N/A   Clear
9:31 PM 33.8 °F 27.0 °F 15.8 °F 48% 30.11 in 10.0 mi SW 8.1 mph - N/A   Clear
9:51 PM 37.4 °F 30.8 °F 14.0 °F 38% 30.10 in 10.0 mi SW 9.2 mph - N/A   Clear
10:11 PM 37.4 °F 30.8 °F 14.0 °F 38% 30.11 in 10.0 mi SW 9.2 mph - N/A   Clear
10:31 PM 37.4 °F 32.1 °F 14.0 °F 38% 30.11 in 10.0 mi SW 6.9 mph - N/A   Clear
10:51 PM 37.4 °F 31.4 °F 14.0 °F 38% 30.11 in 10.0 mi WSW 8.1 mph - N/A   Clear
11:11 PM 33.8 °F 25.8 °F 15.8 °F 48% 30.11 in 10.0 mi WSW 10.4 mph - N/A   Clear
11:31 PM 33.8 °F 25.8 °F 15.8 °F 48% 30.11 in 10.0 mi West 10.4 mph - N/A   Clear
11:51 PM 33.8 °F 25.3 °F 15.8 °F 48% 30.10 in 10.0 mi WSW 11.5 mph - N/A   Clear